Location: Alma
(38.7220°N, 88.9090°W)
Time: 23:09:10
(UTC-06:00)

S-56A Canister/Altair - All Passes

Search period start: 12 November 2019 00:00
Search period end: 22 November 2019 00:00
Orbit: 634 x 2498 km, 38.9° (Epoch: 11 November)

Date Brightness Start Highest point End Pass type
(mag) Time Alt. Az. Time Alt. Az. Time Alt. Az.
12 Nov - 01:53:36 10° WSW 01:55:34 12° SSW 01:57:42 10° S night (unlit)
12 Nov - 17:01:50 10° SSW 17:08:32 24° SSE 17:13:36 10° E visible
12 Nov - 19:05:25 10° WSW 19:12:34 60° SSE 19:17:36 10° E visible
12 Nov - 21:10:44 10° W 21:16:21 87° N 21:20:51 10° E visible
12 Nov - 23:15:22 10° W 23:19:52 55° SSW 23:24:18 10° ESE night (unlit)
13 Nov - 01:20:33 10° WSW 01:23:01 14° SSW 01:25:38 10° S night (unlit)
13 Nov - 16:28:52 10° SSW 16:35:43 22° SSE 16:40:58 10° E daylight
13 Nov - 18:32:10 10° SW 18:39:55 56° SSE 18:45:12 10° E visible
13 Nov - 20:37:41 10° W 20:43:47 88° N 20:48:25 10° E visible
13 Nov - 22:42:37 10° W 22:47:23 62° SSW 22:51:46 10° ESE night (unlit)
14 Nov - 00:47:38 10° WSW 00:50:28 17° SSW 00:53:29 10° S night (unlit)
14 Nov - 15:55:55 10° S 16:02:52 21° SSE 16:08:15 10° ESE daylight
14 Nov - 17:58:53 10° SW 18:07:11 52° SSE 18:12:48 10° E visible
14 Nov - 20:04:31 10° W 20:11:10 90° W 20:15:59 10° E visible
14 Nov - 22:09:47 10° W 22:14:53 70° SSW 22:19:17 10° ESE night (unlit)
15 Nov - 00:14:45 10° W 00:17:58 19° SSW 00:21:17 10° SSE night (unlit)
15 Nov - 15:23:01 10° S 15:29:57 19° SE 15:35:26 10° ESE daylight
15 Nov - 17:25:32 10° SW 17:34:25 49° SSE 17:40:23 10° E visible
15 Nov - 19:31:15 10° W 19:38:32 88° S 19:43:36 10° E visible
15 Nov - 21:36:51 10° W 21:42:22 76° SSW 21:46:50 10° ESE visible
15 Nov - 23:41:52 10° W 23:45:29 23° SSW 23:49:03 10° SSE night (unlit)
16 Nov - 14:50:12 10° S 14:57:00 18° SE 15:02:30 10° ESE daylight
16 Nov - 16:52:10 10° SW 17:01:35 46° SSE 17:07:56 10° E visible
16 Nov - 18:57:54 10° WSW 19:05:51 85° S 19:11:14 10° E visible
16 Nov - 21:03:50 10° W 21:09:48 82° SSW 21:14:24 10° ESE visible
16 Nov - 23:08:58 10° W 23:13:01 27° SSW 23:16:48 10° SSE night (unlit)
17 Nov - 14:17:31 10° S 14:24:00 16° SE 14:29:24 10° ESE daylight
17 Nov - 16:18:46 10° SW 16:28:42 44° SSE 16:35:26 10° E daylight
17 Nov - 18:24:27 10° WSW 18:33:07 81° SSE 18:38:50 10° E visible
17 Nov - 20:30:41 10° W 20:37:14 86° S 20:42:00 10° E visible
17 Nov - 22:36:02 10° W 22:40:34 33° SSW 22:44:33 10° SE night (unlit)
18 Nov - 13:45:00 10° S 13:50:58 15° SE 13:56:04 10° ESE daylight
18 Nov - 15:45:23 10° SW 15:55:46 41° SSE 16:02:54 10° E daylight
18 Nov - 17:50:56 10° WSW 18:00:20 78° SSE 18:06:27 10° E visible
18 Nov - 19:57:27 10° W 20:04:36 89° S 20:09:37 10° E visible
18 Nov - 22:03:02 10° W 22:08:06 40° SSW 22:12:17 10° SE night (unlit)
19 Nov - 13:12:47 10° SSE 13:17:53 13° SE 13:22:26 10° ESE daylight
19 Nov - 15:12:00 10° SSW 15:22:45 39° SSE 15:30:18 10° E daylight
19 Nov - 17:17:21 10° WSW 17:27:30 75° SSE 17:34:02 10° E visible
19 Nov - 19:24:05 10° W 19:31:55 89° N 19:37:13 10° E visible
19 Nov - 21:29:58 10° W 21:35:36 47° SSW 21:40:00 10° SE visible
20 Nov - 12:41:07 10° SSE 12:44:48 12° SE 12:48:12 10° ESE daylight
20 Nov - 14:38:40 10° SSW 14:49:41 36° SSE 14:57:37 10° E daylight
20 Nov - 16:43:43 10° WSW 16:54:35 71° SSE 17:01:36 10° E daylight
20 Nov - 18:50:37 10° W 18:59:11 88° N 19:04:50 10° E visible
20 Nov - 20:56:50 10° W 21:03:04 55° SSW 21:07:43 10° SE visible
20 Nov - 23:04:00 10° WSW 23:05:44 12° SW 23:07:23 10° SSW night (unlit)
21 Nov - 14:05:23 10° SSW 14:16:34 34° SSE 14:24:52 10° E daylight
21 Nov - 16:10:04 10° WSW 16:21:36 68° SSE 16:29:07 10° E daylight
21 Nov - 18:17:03 10° W 18:26:23 88° N 18:32:26 10° E visible
21 Nov - 20:23:35 10° W 20:30:30 63° SSW 20:35:25 10° ESE visible
21 Nov - 22:30:14 10° WSW 22:33:17 15° SW 22:36:01 10° S night (unlit)
